When you browse on this site, cookies collect data to enhance your experience and personalize the content and advertising you see.
Visit our Privacy Policy to learn more. By continuing to use the site, you agree to this use of cookies and data.
  • In Schweiz
  • Länderverzeichnis
  • Für 7 Tage
  • Wassertemperatur
  • Satellitenkarten
  • Wetterkarte
  • Widgets
  • user-avatar
    Anmelden

    Stündliche Wetter Makapa

    Heute, 16 Januar, Mittwoch

    Zeit Temperatur Niederschläge Wind Luftdruck Luftfeuchtigkeit
    00:00 +26°C° 0.4 mm 2 m/S 759 mmHg 95%
    01:00 +26°C° 1 mm 2 m/S 759 mmHg 95%
    02:00 +26°C° 1 mm 2 m/S 759 mmHg 96%
    03:00 +26°C° 0 mm 2 m/S 759 mmHg 96%
    04:00 +26°C° 1.5 mm 2 m/S 759 mmHg 96%
    05:00 +26°C° 1.5 mm 2 m/S 759 mmHg 95%
    06:00 +26°C° 1.5 mm 1 m/S 759 mmHg 95%
    07:00 +26°C° 0.7 mm 1 m/S 760 mmHg 93%
    08:00 +27°C° 0.7 mm 1 m/S 760 mmHg 91%
    09:00 +28°C° 0.7 mm 1 m/S 760 mmHg 89%
    10:00 +28°C° 0.5 mm 1 m/S 760 mmHg 85%
    11:00 +29°C° 0.5 mm 1 m/S 760 mmHg 81%
    12:00 +30°C° 0.5 mm 2 m/S 760 mmHg 77%
    13:00 +30°C° 0.3 mm 2 m/S 760 mmHg 75%
    14:00 +31°C° 0.3 mm 2 m/S 759 mmHg 73%
    15:00 +31°C° 0.3 mm 3 m/S 758 mmHg 71%
    16:00 +30°C° 0.5 mm 3 m/S 758 mmHg 77%
    17:00 +29°C° 0.5 mm 3 m/S 758 mmHg 83%
    18:00 +28°C° 0.5 mm 3 m/S 758 mmHg 89%
    19:00 +28°C° 0.1 mm 3 m/S 758 mmHg 90%
    20:00 +27°C° 0.1 mm 2 m/S 759 mmHg 92%
    21:00 +27°C° 0.1 mm 2 m/S 759 mmHg 93%
    22:00 +27°C° 0.1 mm 2 m/S 760 mmHg 94%
    23:00 +26°C° 0.1 mm 2 m/S 760 mmHg 94%

    Morgen, 17 Januar, Donnerstag

    Zeit Temperatur Niederschläge Wind Luftdruck Luftfeuchtigkeit
    00:00 +26°C° 0.1 mm 2 m/S 760 mmHg 94%
    01:00 +26°C° 1.1 mm 2 m/S 760 mmHg 95%
    02:00 +26°C° 1.1 mm 2 m/S 759 mmHg 95%
    03:00 +26°C° 1.1 mm 2 m/S 759 mmHg 96%
    04:00 +26°C° 0.8 mm 2 m/S 759 mmHg 96%
    05:00 +26°C° 0.8 mm 2 m/S 759 mmHg 96%
    06:00 +25°C° 0.8 mm 2 m/S 759 mmHg 96%
    07:00 +26°C° 0.5 mm 2 m/S 759 mmHg 94%
    08:00 +27°C° 0.5 mm 2 m/S 760 mmHg 91%
    09:00 +28°C° 0.5 mm 2 m/S 760 mmHg 89%
    10:00 +29°C° 0.4 mm 2 m/S 760 mmHg 83%
    11:00 +30°C° 0.4 mm 2 m/S 760 mmHg 78%
    12:00 +31°C° 0.4 mm 2 m/S 760 mmHg 72%
    13:00 +31°C° 0.1 mm 3 m/S 759 mmHg 70%
    14:00 +33°C° 0.1 mm 3 m/S 758 mmHg 68%
    15:00 +33°C° 0.1 mm 3 m/S 757 mmHg 66%
    16:00 +31°C° 0.5 mm 3 m/S 757 mmHg 72%
    17:00 +30°C° 0.5 mm 3 m/S 757 mmHg 78%
    18:00 +29°C° 0.5 mm 3 m/S 757 mmHg 84%
    19:00 +28°C° 0.2 mm 3 m/S 758 mmHg 86%
    20:00 +28°C° 0.2 mm 3 m/S 758 mmHg 88%
    21:00 +27°C° 0.2 mm 3 m/S 759 mmHg 90%
    22:00 +27°C° 0 mm 3 m/S 759 mmHg 91%
    23:00 +26°C° 0 mm 2 m/S 759 mmHg 91%

    übermorgen, 18 Januar, Freitag

    Zeit Temperatur Niederschläge Wind Luftdruck Luftfeuchtigkeit
    00:00 +26°C° 0 mm 2 m/S 760 mmHg 92%
    01:00 +26°C° 0 mm 2 m/S 759 mmHg 93%
    02:00 +26°C° 0 mm 2 m/S 758 mmHg 93%
    03:00 +26°C° 0 mm 2 m/S 758 mmHg 94%
    04:00 +26°C° 0 mm 2 m/S 758 mmHg 95%
    05:00 +25°C° 0 mm 2 m/S 758 mmHg 95%
    06:00 +25°C° 0 mm 2 m/S 758 mmHg 96%
    07:00 +26°C° 0 mm 2 m/S 758 mmHg 92%
    08:00 +27°C° 0 mm 2 m/S 759 mmHg 88%
    09:00 +28°C° 0 mm 2 m/S 760 mmHg 85%
    10:00 +29°C° 0.5 mm 2 m/S 759 mmHg 83%
    11:00 +30°C° 0.5 mm 2 m/S 759 mmHg 81%
    12:00 +31°C° 0.5 mm 2 m/S 759 mmHg 79%
    13:00 +30°C° 1.4 mm 2 m/S 758 mmHg 80%
    14:00 +30°C° 1.4 mm 2 m/S 757 mmHg 81%
    15:00 +30°C° 1.4 mm 2 m/S 756 mmHg 83%
    16:00 +30°C° 0.7 mm 3 m/S 756 mmHg 84%
    17:00 +29°C° 0.7 mm 3 m/S 756 mmHg 86%
    18:00 +28°C° 0.7 mm 3 m/S 756 mmHg 87%
    19:00 +28°C° 2.2 mm 3 m/S 757 mmHg 89%
    20:00 +27°C° 2.2 mm 3 m/S 758 mmHg 91%
    21:00 +27°C° 2.2 mm 4 m/S 758 mmHg 93%
    22:00 +27°C° 0.9 mm 4 m/S 758 mmHg 93%
    23:00 +27°C° 0.9 mm 3 m/S 758 mmHg 93%

    19 Januar, Samstag

    Zeit Temperatur Niederschläge Wind Luftdruck Luftfeuchtigkeit
    00:00 +26°C° 0.9 mm 3 m/S 759 mmHg 93%
    01:00 +26°C° 0.5 mm 3 m/S 758 mmHg 94%
    02:00 +26°C° 0.5 mm 3 m/S 758 mmHg 94%
    03:00 +26°C° 0.5 mm 3 m/S 757 mmHg 94%
    04:00 +26°C° 0.5 mm 3 m/S 757 mmHg 94%
    05:00 +26°C° 0.5 mm 3 m/S 758 mmHg 94%
    06:00 +26°C° 0.5 mm 3 m/S 758 mmHg 94%
    07:00 +26°C° 1.5 mm 2 m/S 759 mmHg 94%
    08:00 +26°C° 1.5 mm 2 m/S 759 mmHg 94%
    09:00 +26°C° 1.5 mm 2 m/S 760 mmHg 94%
    10:00 +26°C° 1.5 mm 2 m/S 760 mmHg 94%
    11:00 +26°C° 1.5 mm 2 m/S 760 mmHg 93%
    12:00 +27°C° 1.5 mm 2 m/S 759 mmHg 93%
    13:00 +28°C° 0.4 mm 2 m/S 759 mmHg 89%
    14:00 +28°C° 0.4 mm 2 m/S 758 mmHg 85%
    15:00 +29°C° 0.4 mm 3 m/S 757 mmHg 81%
    16:00 +29°C° 0.8 mm 3 m/S 757 mmHg 84%
    17:00 +28°C° 0.8 mm 3 m/S 757 mmHg 87%
    18:00 +27°C° 0.8 mm 3 m/S 757 mmHg 91%
    19:00 +27°C° 0.2 mm 3 m/S 758 mmHg 91%
    20:00 +27°C° 0.2 mm 3 m/S 758 mmHg 92%
    21:00 +26°C° 0.2 mm 2 m/S 759 mmHg 92%
    22:00 +26°C° 0 mm 2 m/S 759 mmHg 92%
    23:00 +26°C° 0 mm 2 m/S 759 mmHg 92%

    20 Januar, Sonntag

    Zeit Temperatur Niederschläge Wind Luftdruck Luftfeuchtigkeit
    00:00 +26°C° 0 mm 2 m/S 759 mmHg 92%
    01:00 +26°C° 0.1 mm 2 m/S 758 mmHg 93%
    02:00 +26°C° 0.1 mm 2 m/S 758 mmHg 94%
    03:00 +25°C° 0.1 mm 2 m/S 757 mmHg 95%
    04:00 +25°C° 0.4 mm 2 m/S 757 mmHg 95%
    05:00 +25°C° 0.4 mm 2 m/S 758 mmHg 95%
    06:00 +25°C° 0.4 mm 1 m/S 758 mmHg 96%
    07:00 +26°C° 0.6 mm 2 m/S 759 mmHg 93%
    08:00 +27°C° 0.6 mm 2 m/S 759 mmHg 90%
    09:00 +28°C° 0.6 mm 2 m/S 760 mmHg 87%
    10:00 +29°C° 0.7 mm 2 m/S 760 mmHg 85%
    11:00 +29°C° 0.7 mm 2 m/S 759 mmHg 83%
    12:00 +30°C° 0.7 mm 3 m/S 759 mmHg 80%
    13:00 +30°C° 1.1 mm 3 m/S 758 mmHg 82%
    14:00 +30°C° 1.1 mm 3 m/S 758 mmHg 83%
    15:00 +29°C° 1.1 mm 3 m/S 757 mmHg 84%
    16:00 +29°C° 0.6 mm 3 m/S 757 mmHg 86%
    17:00 +28°C° 0.6 mm 3 m/S 757 mmHg 88%
    18:00 +28°C° 0.6 mm 3 m/S 757 mmHg 89%
    19:00 +27°C° 0.2 mm 3 m/S 758 mmHg 90%
    20:00 +27°C° 0.2 mm 3 m/S 758 mmHg 91%
    21:00 +27°C° 0.2 mm 3 m/S 759 mmHg 92%
    22:00 +26°C° 0.1 mm 3 m/S 759 mmHg 92%
    23:00 +26°C° 0.1 mm 3 m/S 759 mmHg 93%

    21 Januar, Montag

    Zeit Temperatur Niederschläge Wind Luftdruck Luftfeuchtigkeit
    00:00 +26°C° 0.1 mm 2 m/S 759 mmHg 93%
    01:00 +26°C° 0.2 mm 2 m/S 759 mmHg 94%
    02:00 +26°C° 0.2 mm 2 m/S 758 mmHg 95%
    03:00 +25°C° 0.2 mm 2 m/S 758 mmHg 95%
    04:00 +25°C° 0.1 mm 2 m/S 758 mmHg 96%
    05:00 +25°C° 0.1 mm 2 m/S 758 mmHg 96%
    06:00 +25°C° 0.1 mm 2 m/S 758 mmHg 96%
    07:00 +26°C° 0.1 mm 2 m/S 759 mmHg 93%
    08:00 +27°C° 0.1 mm 2 m/S 759 mmHg 90%
    09:00 +28°C° 0.1 mm 2 m/S 760 mmHg 87%
    10:00 +29°C° 1.2 mm 2 m/S 759 mmHg 85%
    11:00 +29°C° 1.2 mm 3 m/S 759 mmHg 83%
    12:00 +30°C° 1.2 mm 3 m/S 759 mmHg 81%
    13:00 +30°C° 0.9 mm 3 m/S 758 mmHg 81%
    14:00 +30°C° 0.9 mm 3 m/S 758 mmHg 82%
    15:00 +30°C° 0.9 mm 3 m/S 757 mmHg 83%
    16:00 +29°C° 0.7 mm 3 m/S 757 mmHg 86%
    17:00 +29°C° 0.7 mm 3 m/S 757 mmHg 88%
    18:00 +28°C° 0.7 mm 3 m/S 757 mmHg 90%
    19:00 +27°C° 0.1 mm 3 m/S 757 mmHg 91%
    20:00 +27°C° 0.1 mm 3 m/S 758 mmHg 93%
    21:00 +26°C° 0.1 mm 3 m/S 759 mmHg 94%
    22:00 +26°C° 0.1 mm 2 m/S 759 mmHg 94%
    23:00 +26°C° 0.1 mm 2 m/S 759 mmHg 95%
    Mehr zeigen